Wind_Speed
12 13 13 13 13 13 13 14 14 14 15 15 15 16 16 16 15 15 15 15 14 14 14 15 16 15 16 15 14 13 12 11 10 8 7 6 5 4 3 2 2 2 2 2 2 2 3 3 4 4 5 6 6 8 10 10 10 10 10 10 11 10 9 7 8 9 9 9 9 8 8 8 9 11 13 13 13 13 13 13 13 15 16 17 18
10 12 13 12 12 12 13 13 13 14 14 15 15 15 15 15 15 15 14 14 14 13 13 14 14 14 14 13 12 11 11 10 9 7 6 5 4 4 3 2 2 2 2 2 2 2 1 2 3 3 4 5 5 7 8 8 9 10 10 9 10 10 8 5 5 7 8 7 7 8 8 6 5 6 7 8 9 10 10 11 11 11 11 12 13
9 9 11 11 12 12 12 13 13 13 14 15 15 15 15 15 14 14 14 13 13 13 12 12 12 12 12 11 10 10 10 9 9 8 7 7 7 6 5 5 4 4 4 3 3 3 2 2 3 4 5 6 6 8 9 10 11 11 12 12 11 10 9 7 7 7 8 7 6 7 8 7 4 4 4 5 6 6 7 7 7 8 7 7 8
11 10 10 9 10 10 11 11 12 12 13 14 14 15 15 15 15 14 13 13 12 12 11 11 11 10 10 10 10 10 9 9 9 8 8 9 8 8 7 6 6 6 6 5 4 4 4 4 5 6 7 8 8 10 11 12 13 14 14 14 12 11 10 8 8 9 9 8 7 6 7 7 6 5 5 5 5 5 5 5 5 5 4 4 4
13 12 12 11 11 10 10 10 11 11 12 12 13 13 14 14 14 14 13 13 12 11 11 10 10 9 9 9 9 9 10 10 9 9 9 9 9 9 8 7 7 7 6 6 6 7 7 7 8 9 10 11 11 12 13 14 14 14 14 13 11 10 10 9 10 11 11 9 9 9 10 10 9 7 6 5 5 5 6 6 7 7 7 6 6
16 15 15 14 14 13 13 12 12 12 11 11 11 11 11 12 12 12 12 12 12 12 12 11 11 10 9 10 10 11 11 11 11 11 11 12 11 11 11 10 10 10 9 9 10 10 10 11 12 12 13 13 13 13 12 12 12 12 12 12 11 10 10 10 11 12 12 10 9 9 9 10 9 8 8 6 4 4 5 6 8 9 10 11 11
19 18 18 17 16 16 16 16 16 15 14 13 11 11 10 10 11 11 11 12 12 12 11 11 10 9 8 8 9 10 12 13 14 15 14 14 14 14 13 13 13 13 12 12 13 13 13 14 14 13 13 13 12 10 10 10 10 10 10 10 11 11 12 13 14 14 14 12 10 8 8 9 9 9 8 6 5 5 7 9 10 11 12 13 14
21 21 20 20 20 19 19 19 20 19 18 16 15 13 12 11 11 11 11 11 11 10 10 10 10 9 7 7 8 10 12 15 16 15 14 14 14 14 14 14 13 12 12 12 13 13 14 13 13 12 11 11 10 9 9 9 10 11 11 12 13 15 16 17 16 16 15 14 12 9 8 8 7 8 8 7 6 8 10 11 12 13 14 14 15
24 23 22 22 21 22 22 22 22 22 21 19 18 17 15 14 13 12 11 10 10 10 10 10 11 12 13 15 16 15 15 16 15 13 12 12 13 12 12 12 11 11 11 11 12 12 12 12 12 12 11 11 10 11 11 12 13 14 15 16 16 17 19 19 19 18 17 15 14 12 11 11 9 9 11 11 10 10 11 12 12 12 13 15 16
26 25 24 23 23 23 24 24 24 24 23 22 21 20 19 17 15 14 13 12 12 12 13 13 14 14 16 18 20 19 17 17 16 14 14 13 13 13 13 13 13 13 13 13 13 13 13 13 14 14 14 14 14 15 16 16 17 17 18 18 18 19 20 20 20 20 19 17 16 15 14 14 13 13 14 15 15 14 13 12 12 13 14 15 16
28 28 27 25 25 25 26 27 27 27 26 25 24 24 22 21 19 17 16 16 16 17 17 16 17 18 18 18 19 19 19 18 18 17 17 17 17 17 17 17 17 17 17 17 17 16 16 17 18 19 19 19 19 20 20 20 21 21 21 20 20 20 22 23 22 22 21 20 19 18 18 18 17 17 17 17 17 17 15 14 15 16 17 18 18
29 29 29 28 28 28 28 29 30 30 29 28 27 27 26 24 23 22 21 20 21 22 20 19 19 21 21 20 21 20 20 20 20 20 20 20 20 20 20 20 20 21 22 21 20 20 20 21 23 24 24 24 24 24 24 24 25 25 24 24 23 23 24 25 24 24 24 24 23 22 22 22 21 20 20 20 19 17 16 18 20 21 21 21 22
30 29 30 31 32 30 29 32 34 34 32 32 31 30 29 29 27 26 25 24 25 26 24 22 23 24 23 23 22 22 22 22 22 22 23 23 22 22 22 22 23 24 25 24 23 22 22 23 24 25 26 26 26 26 26 27 27 28 27 27 26 26 27 27 27 27 27 27 26 25 25 26 26 24 23 24 23 22 21 23 25 24 23 23 24
33 31 31 34 37 37 36 38 38 36 35 35 34 33 32 33 32 31 30 29 29 29 28 27 28 28 27 26 25 24 24 24 24 24 24 25 26 26 26 25 26 26 27 27 25 24 24 24 25 26 27 27 27 27 27 29 29 30 30 29 29 29 30 30 30 30 29 29 30 29 29 29 30 28 27 27 28 28 28 28 27 26 25 25 26
36 35 34 37 40 41 41 42 40 37 37 37 36 35 35 35 35 35 35 34 33 33 33 32 33 32 31 30 28 28 28 27 27 27 27 29 31 32 31 30 29 29 29 29 28 27 27 27 28 28 29 29 29 29 30 30 31 31 31 32 32 32 32 33 33 33 33 32 33 33 33 33 33 32 31 31 31 31 31 30 29 28 27 26 25
38 37 37 40 42 41 42 44 42 40 39 37 37 37 38 38 38 38 38 38 38 38 37 37 37 37 36 33 32 32 32 31 31 31 31 33 35 36 35 34 33 32 31 31 31 31 31 31 31 31 31 32 33 32 32 32 33 33 33 33 33 34 34 35 35 36 36 36 36 36 36 36 36 35 35 35 34 33 33 32 30 30 31 29 27
40 37 39 44 46 44 44 45 46 44 42 39 39 39 39 40 40 40 41 41 41 41 41 41 40 40 39 38 36 35 35 34 33 34 35 36 37 39 39 38 37 35 34 34 34 34 34 35 35 34 34 35 36 36 36 35 35 35 36 36 37 37 37 37 37 38 39 39 40 40 40 39 39 39 38 38 38 37 37 35 34 34 34 34 33
41 40 44 49 50 48 47 48 49 48 46 43 41 39 40 41 42 43 44 44 43 41 41 41 40 39 40 41 40 39 38 38 37 37 38 39 39 40 41 41 41 40 38 37 37 38 38 38 38 37 37 38 38 39 40 40 39 39 39 39 39 40 40 41 41 41 42 42 42 43 43 43 43 43 43 42 42 42 41 41 39 38 39 39 39
45 45 48 51 50 49 50 52 53 51 48 45 42 40 39 40 42 44 45 45 45 43 42 40 38 39 40 41 41 42 42 42 42 42 42 42 41 40 41 43 44 43 42 41 42 43 43 43 43 42 42 41 41 41 41 42 42 42 42 41 42 43 43 44 45 45 45 46 46 46 47 47 48 48 48 48 48 47 47 46 46 45 46 47 47
51 49 48 49 49 47 48 53 56 55 51 47 45 43 42 43 44 44 43 44 44 44 43 41 39 40 42 41 41 42 42 43 44 45 45 45 43 42 43 46 48 48 47 47 46 46 47 46 47 46 46 46 45 44 44 43 43 43 44 44 45 45 46 47 47 48 48 49 49 50 50 51 52 52 53 53 53 53 53 53 53 54 55 55 55
55 52 50 52 52 48 48 52 55 56 54 50 48 46 47 48 49 48 47 46 45 43 42 40 40 42 43 42 43 45 45 45 47 48 48 47 45 45 47 49 50 51 50 48 47 47 47 47 48 48 48 48 49 48 47 46 46 47 48 49 50 51 51 52 51 52 52 53 53 54 54 54 55 56 57 57 57 57 57 57 57 58 59 59 59
57 54 53 55 53 50 50 53 53 53 54 53 51 50 51 53 53 51 50 50 50 48 44 42 41 43 44 46 48 49 49 48 49 51 51 50 49 49 51 51 51 51 51 50 50 50 49 49 50 50 50 51 51 52 51 51 50 51 53 55 57 58 58 58 58 57 57 57 58 58 59 59 59 60 61 61 61 61 61 61 61 61 62 62 62
61 59 57 57 55 52 52 53 53 52 53 53 53 54 55 55 54 53 53 53 53 52 49 47 47 48 50 52 52 51 49 48 49 51 53 53 53 54 56 55 55 56 57 57 56 55 54 54 54 54 54 55 54 55 55 54 54 55 57 59 61 62 62 62 62 61 61 61 61 61 61 62 63 63 64 64 64 64 64 64 64 64 64 64 64
65 65 64 63 62 61 59 58 58 58 57 57 56 58 58 56 54 52 51 51 51 49 48 49 50 51 53 55 55 54 52 49 50 52 54 54 54 56 58 58 58 58 59 60 60 60 60 60 60 60 59 59 58 58 59 60 61 63 64 64 64 64 64 65 64 64 64 64 64 64 64 64 64 65 66 66 66 66 66 66 66 66 67 67 67
69 68 68 68 68 68 68 67 67 68 67 64 62 62 64 63 60 56 53 52 53 52 51 52 53 56 58 59 59 60 61 59 59 60 60 59 58 58 59 60 61 62 63 64 64 64 64 64 64 64 63 62 62 62 63 65 66 68 69 69 68 67 67 68 68 68 68 68 68 68 68 68 68 69 69 69 70 70 70 71 71 71 72 73 73
73 71 71 71 71 72 73 73 73 73 72 69 67 66 69 71 70 68 65 64 64 64 64 64 65 66 68 68 68 68 70 71 71 71 71 69 68 67 67 67 68 69 69 69 69 69 69 68 67 67 66 66 66 66 67 68 69 70 72 73 72 71 72 73 73 73 73 73 73 74 74 74 74 74 74 74 74 74 75 75 76 76 77 78 79
74 75 75 74 73 74 76 76 75 74 72 70 68 66 68 73 75 74 72 72 72 73 73 73 73 72 72 73 74 74 75 76 77 77 77 77 75 74 73 74 75 76 76 75 74 74 73 72 72 72 72 72 72 72 72 73 74 74 75 75 74 73 74 75 75 76 76 77 77 78 79 79 80 80 80 80 80 80 80 81 81 82 83 84 84
75 75 75 75 75 76 77 78 77 76 74 72 69 66 66 69 71 72 73 73 74 75 75 75 75 75 75 75 76 77 77 78 79 79 79 80 80 80 79 78 79 79 79 79 78 78 77 78 78 78 78 78 78 78 78 78 79 80 81 81 80 78 78 78 79 79 79 80 81 82 83 83 84 85 85 86 85 85 86 86 87 87 88 89 90
79 78 77 76 75 76 77 77 77 76 74 72 71 70 69 69 69 70 71 72 74 75 75 74 74 74 74 75 76 78 78 79 80 80 81 81 82 83 83 83 83 82 82 81 80 80 80 81 81 82 82 82 83 83 83 84 84 84 85 86 87 86 85 85 85 84 85 85 86 87 88 88 89 89 90 90 90 91 91 92 92 92 93 94 95
82 82 81 80 78 77 77 77 77 77 76 73 72 72 72 71 70 69 70 71 73 74 75 75 75 76 77 77 77 78 79 79 79 80 81 82 82 83 84 84 85 86 85 85 83 83 83 83 84 85 85 85 86 87 88 88 89 89 89 91 92 92 92 91 90 90 90 90 90 90 90 90 91 92 93 94 94 95 95 95 96 97 98 99 101
85 85 86 86 85 83 81 80 79 77 76 75 74 73 73 74 73 72 73 74 77 79 80 82 83 83 83 82 81 80 79 79 79 79 80 80 81 82 83 83 84 85 86 86 85 85 86 87 88 89 89 90 92 92 93 94 94 95 96 97 98 98 98 97 95 95 95 95 96 95 94 94 95 97 98 99 99 100 100 100 101 102 103 105 106
88 88 88 89 89 88 87 85 83 79 77 76 76 76 77 77 78 79 80 82 83 85 85 86 86 86 85 84 84 82 81 81 81 80 80 79 79 80 81 82 82 83 85 86 86 87 88 90 91 93 95 96 97 98 99 100 100 101 101 102 102 102 101 100 98 98 97 97 98 97 97 97 98 99 101 102 103 104 105 106 107 108 110 111 111
92 91 90 90 90 90 90 90 90 88 84 82 82 82 83 84 85 86 86 85 84 84 84 85 86 86 86 85 85 84 83 83 83 83 83 82 82 83 84 85 87 88 89 91 92 93 94 96 97 99 101 102 103 103 104 104 105 104 104 103 103 102 101 99 98 98 98 98 99 99 100 100 100 101 102 102 103 103 104 106 107 109 111 112 113
94 93 92 91 91 90 91 92 93 94 93 92 90 89 88 88 88 88 87 86 85 84 84 85 86 86 86 86 86 86 86 86 87 88 89 90 91 93 94 95 96 98 99 100 101 102 104 105 106 107 107 107 107 106 105 104 105 104 104 103 102 102 102 101 100 101 101 102 103 104 104 104 104 104 105 105 106 106 107 108 109 110 111 112 112
92 92 92 92 91 89 88 89 90 92 93 94 95 94 93 92 91 91 91 90 88 87 86 84 84 85 86 87 88 88 89 90 92 94 95 97 99 101 102 104 105 106 107 108 109 109 110 111 111 111 110 108 107 106 105 105 105 105 104 103 103 103 103 103 104 104 105 107 108 108 108 108 109 109 110 110 111 111 112 112 112 112 113 113 113
91 91 91 91 90 89 88 86 85 85 85 86 88 90 91 92 93 94 94 93 91 89 88 86 85 86 88 90 91 92 94 95 97 99 100 102 104 105 107 108 109 110 111 111 112 112 112 112 112 111 110 109 108 108 107 107 107 107 106 106 106 107 107 108 108 108 109 110 110 111 111 112 112 113 115 117 119 120 121 121 121 120 120 121 122
89 90 89 89 88 89 88 87 86 84 83 83 85 87 88 90 91 92 93 93 92 91 90 90 90 91 92 94 96 97 98 99 100 101 103 104 105 106 108 109 110 111 111 111 111 111 110 111 111 111 111 110 110 110 110 110 110 110 109 109 109 110 111 111 112 113 114 115 116 117 117 117 118 119 121 124 126 128 129 129 129 129 129 130 130
85 86 87 87 87 87 87 87 87 86 85 86 87 88 90 91 93 93 93 93 93 93 93 93 94 95 97 99 101 101 102 102 102 103 104 105 106 107 108 109 110 111 111 111 110 110 110 111 111 112 112 112 112 112 112 113 113 113 113 113 114 115 115 116 116 118 119 121 122 123 124 125 127 129 131 133 134 135 135 135 135 136 136 136 136
85 84 84 84 85 85 85 85 86 87 87 88 88 88 89 90 92 93 94 94 94 94 95 97 99 100 103 104 106 106 106 107 107 108 108 109 109 110 111 111 112 113 113 113 113 112 112 112 113 113 114 114 115 115 116 116 116 117 117 118 119 120 120 121 122 122 124 125 127 129 132 134 136 138 140 140 140 139 139 139 139 139 140 141 141
88 86 85 83 83 84 85 86 87 88 89 89 90 91 92 92 93 94 95 95 96 98 100 102 104 106 108 109 110 110 111 111 111 112 112 112 113 113 113 114 114 114 115 115 116 115 115 115 116 117 118 118 119 119 120 120 121 122 122 123 124 125 126 127 128 129 130 132 134 137 139 142 144 146 146 146 145 144 144 144 144 144 145 146 146
91 90 89 87 86 86 86 87 89 89 90 90 92 93 94 95 96 97 98 99 100 101 102 103 105 106 108 109 110 111 112 112 112 112 113 113 114 114 115 115 116 116 117 118 118 119 119 119 120 121 121 122 122 123 123 124 125 126 127 128 129 130 131 132 133 135 136 138 141 143 146 148 150 151 152 152 152 151 151 152 152 152 153 154 155
92 92 92 91 91 90 91 91 91 91 92 92 92 93 94 95 97 98 99 100 100 101 101 103 104 105 106 107 107 108 109 110 110 110 111 111 112 113 114 115 116 118 119 119 120 120 121 122 123 124 125 125 126 126 127 128 129 130 131 132 133 135 136 138 139 141 143 145 147 149 151 153 154 156 156 157 158 158 158 159 159 160 161 161 162
92 91 91 92 92 93 94 95 96 96 96 95 94 94 93 94 96 97 98 98 98 98 99 100 101 103 104 105 106 107 107 108 109 109 110 110 111 112 113 114 116 118 119 120 121 122 123 124 125 126 127 128 129 130 131 132 133 134 135 137 138 139 141 142 144 146 148 150 152 154 155 157 159 161 162 163 163 163 163 163 164 164 165 166 167
92 91 91 91 91 92 94 96 98 100 100 100 100 99 98 98 98 98 98 99 99 99 100 100 101 102 103 104 105 106 107 108 109 110 110 111 112 113 115 116 118 120 121 123 124 125 126 127 128 129 130 131 133 134 135 136 137 138 140 142 144 145 147 149 151 153 155 157 159 161 162 164 165 167 167 168 168 168 169 170 171 171 172 173 174
92 92 91 91 91 91 93 96 98 101 103 104 104 105 104 104 104 104 103 104 104 104 105 106 106 107 108 109 109 110 111 112 113 113 114 115 116 117 118 120 121 123 125 127 128 129 130 132 133 134 136 137 138 140 141 143 144 146 148 150 152 154 155 157 159 161 162 164 165 167 168 169 170 172 173 173 173 173 173 171 169 167 164 161 159
90 91 91 91 92 92 92 94 96 99 102 105 107 109 109 110 110 110 110 110 111 111 111 111 112 113 113 114 114 115 115 116 118 119 120 121 122 122 124 125 127 128 130 132 134 135 137 139 140 142 144 146 148 149 150 152 153 155 156 158 160 161 163 165 166 168 169 170 172 172 173 173 172 170 168 165 162 158 153 149 144 140 137 134 131
87 88 89 90 91 92 92 93 94 95 98 101 104 107 110 112 114 115 115 116 116 116 117 117 118 118 119 120 120 121 121 122 123 124 125 127 128 129 130 132 134 135 137 139 141 144 146 148 149 151 152 154 155 156 158 160 161 163 164 166 167 168 170 170 171 172 172 171 170 167 164 160 155 150 145 141 136 132 129 126 123 120 119 117 115
85 87 88 89 90 91 92 93 94 95 96 98 100 103 105 108 111 114 116 117 119 120 120 121 122 123 124 125 126 127 128 129 130 131 132 134 135 136 137 139 141 144 146 148 149 151 153 155 157 158 160 161 163 164 165 166 167 168 168 168 168 168 167 166 165 163 160 156 152 147 142 137 132 129 125 122 118 116 113 111 109 107 106 105 104
85 86 88 89 90 91 92 94 95 96 98 99 101 102 104 105 107 109 112 114 116 118 120 122 124 126 128 129 130 131 133 135 136 137 139 140 141 143 145 146 148 150 152 153 155 157 158 160 161 163 164 165 166 167 167 167 167 166 165 163 161 158 155 152 148 144 140 135 131 127 123 119 116 113 110 107 104 102 100 99 97 95 94 93 93
86 87 89 90 92 93 95 96 97 99 100 101 103 105 107 108 110 111 112 113 115 117 119 121 123 126 127 129 130 132 134 136 137 139 140 141 143 144 146 147 149 151 152 154 155 157 158 159 160 161 162 162 162 162 161 160 157 154 151 147 144 140 136 132 128 125 121 117 114 110 107 104 101 99 96 94 92 91 90 89 87 86 85 85 84
89 90 91 93 94 95 97 98 99 101 102 104 105 107 108 110 112 114 115 116 117 118 120 121 123 125 126 128 129 131 133 135 136 137 139 140 142 143 144 146 147 148 149 151 152 153 154 155 155 155 154 153 152 149 146 143 139 135 131 128 124 121 118 115 111 108 105 102 99 96 94 92 90 89 87 86 84 83 83 82 81 79 79 78 78
Wind_Direction
117 113 112 113 118 127 136 142 147 150 151 152 153 153 153 154 155 156 158 159 160 161 162 165 168 168 168 167 166 166 166 165 164 161 154 147 138 133 131 117 82 62 43 26 26 48 53 55 49 45 40 32 27 21 19 18 18 20 23 27 28 23 24 39 41 35 41 49 55 60 54 48 57 66 67 66 65 69 75 80 84 85 86 85 84
137 129 125 123 123 126 131 140 149 155 159 160 161 162 161 162 162 162 162 163 163 163 165 167 171 174 177 181 182 183 185 187 191 193 188 188 197 202 210 243 277 289 301 309 314 320 350 3 360 357 358 355 358 360 359 358 357 356 357 4 9 5 2 358 355 6 17 29 44 51 40 35 47 57 55 54 56 62 68 73 79 82 84 84 83
167 156 146 141 138 138 138 140 147 154 161 166 169 171 171 171 172 171 171 172 170 169 171 174 176 180 184 189 193 196 202 207 214 217 218 224 229 231 239 250 263 273 278 278 280 289 303 318 320 318 321 324 331 336 337 338 338 338 339 344 348 349 346 327 320 341 356 356 7 25 25 26 40 39 18 10 16 29 39 49 59 66 71 77 80
190 188 183 173 165 161 158 154 153 155 159 164 169 173 175 178 179 180 181 181 180 179 183 185 187 190 194 199 204 209 215 221 225 228 232 235 238 240 242 246 255 268 274 273 275 279 286 299 306 307 306 308 315 322 323 324 327 328 329 335 337 334 332 325 318 330 346 346 343 348 342 335 340 348 343 331 323 324 339 354 5 17 29 39 51
204 204 205 205 202 197 190 183 177 172 170 168 168 169 171 175 178 182 186 187 189 191 195 197 198 200 204 210 216 222 227 231 233 234 238 241 243 246 248 251 259 267 266 270 275 277 282 290 297 300 300 301 307 312 314 315 319 322 326 331 332 326 321 322 323 327 338 343 341 337 321 309 314 323 316 304 292 287 296 303 307 310 316 321 323
217 217 216 217 218 220 220 216 209 202 196 189 182 176 172 170 172 177 180 184 188 192 197 202 205 208 215 221 227 234 239 242 243 240 240 243 245 247 253 257 263 267 268 271 275 278 281 287 293 296 297 299 304 308 311 314 319 324 327 329 330 327 323 323 326 331 336 338 339 341 325 306 299 300 296 285 268 271 284 293 296 300 303 303 303
224 225 226 226 226 227 230 230 229 226 222 216 208 200 192 186 181 179 179 182 186 187 191 196 200 206 217 230 239 245 248 247 245 243 241 243 246 249 253 258 261 266 270 272 274 275 278 281 286 291 292 294 300 306 312 316 320 322 322 321 319 318 317 316 320 325 331 332 331 333 323 302 284 276 277 274 268 281 294 300 302 302 301 302 304
228 230 231 232 233 233 235 236 236 236 234 231 227 223 218 211 205 201 197 196 194 192 192 194 195 195 207 235 248 249 249 248 246 245 245 246 249 251 254 257 260 263 266 269 272 275 277 279 280 282 284 290 298 304 308 310 310 308 305 304 305 305 305 307 310 314 319 321 321 319 315 306 280 254 253 264 278 287 289 290 291 288 288 296 305
230 233 235 236 236 238 239 240 240 240 239 238 237 236 234 230 227 224 222 221 218 215 212 210 208 202 204 217 225 229 240 250 253 253 252 251 254 256 259 261 262 265 268 271 274 277 278 278 276 274 277 282 287 290 294 296 297 296 295 296 297 298 299 301 303 306 308 310 312 311 310 311 297 267 256 259 264 272 279 282 282 279 282 290 292
232 236 239 240 241 242 243 244 245 244 243 242 242 242 241 240 239 238 238 239 236 234 229 225 224 220 215 218 222 226 237 250 255 257 258 259 261 263 264 265 265 268 271 274 276 277 276 275 274 274 277 280 282 285 288 290 291 290 291 293 296 297 298 299 300 301 301 301 301 299 297 298 294 280 268 264 267 276 285 289 287 285 289 295 293
232 237 241 243 244 245 246 246 247 247 246 244 243 243 244 244 244 246 247 247 248 247 241 235 235 235 229 227 229 232 240 248 253 256 257 257 258 258 259 260 262 263 265 267 271 273 274 275 275 276 279 282 284 287 289 291 291 290 289 291 293 295 296 298 299 299 298 297 296 293 289 287 285 281 275 270 272 278 284 289 291 289 286 286 288
228 235 241 245 245 247 250 251 250 248 246 246 244 243 244 245 246 248 250 252 253 254 251 246 246 247 244 241 240 241 246 251 254 257 258 257 256 257 258 259 261 262 263 264 265 267 269 272 275 278 281 284 285 287 288 289 289 290 290 292 292 291 292 294 295 296 297 296 294 290 286 283 281 280 278 276 275 275 279 286 291 290 285 281 282
221 227 236 243 244 242 241 242 244 244 243 243 243 242 243 246 248 250 252 253 255 257 258 255 253 253 252 250 249 249 251 253 256 259 261 262 262 263 266 267 267 267 268 268 268 268 269 271 274 278 280 282 283 285 287 288 288 288 289 290 290 291 291 292 293 294 296 296 293 289 285 283 281 279 277 276 275 273 275 280 285 286 286 285 286
220 221 228 238 242 238 231 231 235 238 239 241 242 243 244 245 247 249 250 251 253 256 259 258 255 254 254 254 255 255 257 258 259 261 265 267 269 272 274 273 273 273 273 274 273 273 273 274 276 278 280 281 282 283 284 286 288 289 289 290 290 290 291 291 292 293 293 294 293 291 288 285 283 280 276 275 276 276 276 277 278 279 281 284 288
224 222 223 230 238 241 239 237 237 238 237 239 242 243 245 245 246 248 250 252 254 256 256 255 255 254 254 255 255 256 258 261 263 264 266 268 271 273 275 274 274 275 275 276 277 275 273 274 276 277 279 280 281 282 282 284 285 287 288 289 290 291 291 290 290 290 290 290 291 291 289 287 284 281 278 277 278 279 279 277 273 271 271 274 280
228 228 230 232 237 242 244 242 241 240 239 239 241 243 245 247 248 250 253 255 257 257 256 254 254 255 255 255 255 255 257 260 263 265 266 267 269 272 273 274 274 274 275 276 277 276 274 274 275 276 277 277 278 279 280 280 281 283 285 287 288 288 289 289 289 289 289 288 288 287 287 286 284 282 279 278 278 278 277 274 271 268 267 267 270
232 232 236 240 241 243 245 244 243 243 243 244 244 244 245 247 248 250 253 256 257 258 258 258 257 257 257 256 256 257 258 260 262 264 266 267 268 269 269 270 270 271 272 273 273 274 274 274 275 276 276 277 277 278 278 278 278 280 281 284 285 286 287 287 287 287 287 287 287 287 286 285 284 282 280 280 280 279 277 274 271 270 268 268 271
234 230 234 241 245 245 245 243 242 242 243 246 246 246 247 249 250 250 251 252 254 256 260 263 262 261 259 257 257 259 260 261 262 264 265 267 268 268 267 266 267 269 271 272 272 272 272 274 276 276 277 277 278 279 279 279 278 278 280 281 283 284 285 285 285 285 285 285 285 285 285 285 284 282 280 279 279 278 277 275 273 271 270 271 274
238 237 238 241 245 245 242 240 241 241 241 243 246 248 249 250 250 251 251 252 252 253 256 260 262 262 261 259 258 259 261 262 264 266 267 268 269 269 267 266 266 268 271 274 275 274 274 274 275 276 276 276 277 277 278 278 277 278 279 280 281 282 283 283 283 283 283 283 283 283 283 282 282 282 281 279 278 277 275 274 273 273 274 276 278
239 242 243 241 242 244 242 239 240 240 239 242 247 249 250 249 249 250 252 255 256 255 255 258 260 261 260 259 258 259 260 263 265 267 268 268 267 266 264 262 263 266 271 276 277 276 276 276 277 277 277 277 276 277 277 276 276 276 276 278 279 280 280 280 280 281 280 280 280 280 280 280 280 280 280 279 278 277 276 275 274 274 276 278 279
235 238 240 240 242 245 244 243 243 241 241 245 249 249 250 250 251 250 250 252 255 257 257 257 257 256 257 258 259 261 261 262 264 266 266 265 264 262 261 262 264 266 270 274 275 275 276 278 279 279 279 278 277 276 276 275 274 274 275 277 278 278 279 279 279 280 280 280 279 279 279 279 279 279 278 278 277 277 276 275 275 275 276 277 277
230 233 235 239 242 243 243 246 247 245 244 246 247 247 248 250 251 252 251 253 255 255 255 254 252 253 256 258 261 263 265 265 264 265 266 267 267 266 265 265 265 266 269 271 273 274 275 277 278 279 279 278 277 274 274 274 274 275 276 278 278 278 278 278 278 278 279 279 279 279 279 279 279 279 279 278 277 276 276 275 275 276 276 277 277
229 232 234 238 240 239 239 242 246 247 247 246 246 245 246 249 252 254 253 254 256 256 254 252 251 255 260 263 264 266 268 269 268 267 268 270 272 271 270 269 268 269 271 272 272 272 272 273 274 275 276 276 274 272 271 272 273 275 277 278 279 279 279 278 278 279 278 278 279 279 279 280 280 279 279 279 278 277 277 277 277 277 276 276 277
228 231 235 238 241 241 241 243 247 251 251 250 247 245 245 246 250 252 251 252 254 254 253 251 252 256 260 264 266 267 268 269 270 270 271 272 272 271 271 271 271 271 272 273 274 274 274 273 273 273 273 273 272 271 270 271 272 275 277 277 277 277 278 278 278 278 278 278 279 280 281 281 280 280 280 279 279 278 277 277 277 277 277 277 277
227 230 233 237 241 244 246 248 251 253 254 253 250 247 245 244 245 247 248 248 250 250 250 251 254 257 261 263 265 267 267 268 269 270 272 273 273 273 272 272 273 274 274 275 275 275 275 275 275 275 275 274 273 272 272 273 275 276 277 277 277 277 277 277 277 277 277 278 279 280 281 281 281 280 280 279 279 279 278 278 278 278 278 278 278
229 230 232 235 239 242 246 248 251 252 254 254 254 252 249 245 244 246 247 249 252 253 255 256 258 260 262 264 264 266 267 268 269 270 270 270 270 271 271 272 274 275 276 276 277 277 277 277 277 277 278 277 277 276 276 276 277 277 277 277 277 277 276 275 275 276 276 277 277 278 279 280 280 280 279 279 279 279 279 278 278 278 279 279 280
232 232 234 236 238 240 243 246 247 249 251 253 255 255 252 248 246 247 250 252 254 256 258 259 261 261 263 264 265 266 267 268 269 270 271 271 271 270 270 270 272 273 275 276 277 277 277 277 277 278 278 279 279 279 278 278 278 278 278 278 278 277 276 275 274 275 275 275 275 276 276 277 278 278 279 279 278 278 278 278 279 279 279 280 281
232 233 234 236 238 240 242 244 245 246 249 251 252 253 253 251 249 250 252 254 256 257 258 260 261 262 263 264 265 266 267 268 269 270 271 272 273 273 273 272 273 273 274 275 276 277 278 278 278 278 279 279 280 280 280 280 280 280 280 280 280 279 278 277 276 277 277 277 276 276 276 276 276 277 277 277 277 277 278 278 278 279 279 280 281
232 232 232 233 235 238 240 242 244 245 247 249 250 251 252 252 251 252 253 255 257 258 259 261 263 264 266 266 266 267 267 268 270 271 272 273 273 275 275 276 276 276 276 276 277 278 279 279 280 280 280 281 282 282 283 282 282 282 282 282 282 282 282 281 281 281 280 280 279 279 278 278 278 277 277 277 277 277 277 278 278 278 279 280 281
231 232 232 231 232 235 238 240 243 244 245 247 248 250 251 250 250 251 252 254 256 258 260 262 265 268 269 269 269 269 269 270 271 272 273 274 275 275 275 276 277 277 277 278 278 279 280 280 280 280 281 281 282 283 282 282 281 281 281 281 282 282 282 282 282 282 281 280 279 279 279 278 278 277 277 278 278 278 278 278 277 278 278 279 281
232 232 232 232 232 234 236 239 241 244 245 246 246 247 249 250 250 251 253 256 259 260 261 263 266 269 270 270 270 270 270 270 271 272 273 274 276 277 277 277 277 278 278 279 279 280 280 280 280 281 281 282 282 282 282 281 281 281 281 281 281 281 281 281 280 280 279 278 278 277 277 278 277 277 277 278 279 279 279 279 279 279 279 280 281
232 233 233 233 234 235 236 238 240 242 244 245 246 247 248 250 252 254 256 259 260 262 263 264 266 268 268 269 269 269 270 270 270 270 271 272 274 275 276 277 278 278 279 279 280 280 280 281 281 282 282 283 283 283 283 282 282 282 282 281 281 281 281 281 280 279 278 278 278 278 278 279 279 279 279 280 280 281 281 281 281 281 282 282 282
234 235 235 236 236 237 237 238 239 241 242 244 247 249 250 252 254 256 258 259 260 261 262 264 265 266 266 266 267 268 269 269 270 270 270 271 273 274 275 276 277 278 279 279 280 280 281 281 281 282 282 283 283 283 282 282 282 282 282 282 282 282 282 282 281 280 280 279 280 280 281 281 282 282 282 283 283 284 284 284 284 284 284 284 284
234 236 237 239 239 240 240 241 241 242 243 245 247 250 252 254 256 257 259 260 261 262 262 262 262 263 263 264 265 266 267 268 269 270 271 272 274 275 276 277 278 278 279 279 280 280 281 281 281 282 282 282 282 281 281 281 281 281 282 282 282 282 282 282 282 281 281 282 282 283 283 283 284 284 284 285 285 285 286 286 286 286 285 285 285
235 237 238 240 241 242 243 244 245 245 246 248 249 251 253 255 257 259 260 262 262 261 260 259 259 260 261 262 263 264 266 267 268 269 271 272 273 275 276 277 278 278 279 279 280 280 281 281 281 281 281 281 281 280 280 281 281 281 281 282 282 282 282 281 281 281 282 282 283 283 284 284 285 285 286 286 286 286 286 285 284 283 283 282 282
238 239 240 241 243 244 245 246 248 250 251 252 253 254 256 257 258 259 260 260 260 258 257 257 258 259 261 262 263 265 266 267 268 269 271 272 273 274 275 276 277 278 278 279 280 280 280 281 281 281 281 281 280 280 281 281 281 281 282 282 282 283 283 283 282 282 282 282 282 283 283 283 283 284 285 285 285 285 285 285 284 283 281 281 281
242 243 243 244 245 246 246 247 249 252 254 255 256 257 258 258 258 258 258 257 257 256 255 256 258 260 261 263 265 266 267 268 269 270 272 273 274 275 276 277 278 278 279 279 279 279 280 279 280 280 280 280 281 281 281 281 282 282 283 282 282 282 282 282 281 281 281 281 282 281 281 281 281 281 282 282 283 283 283 283 282 281 281 280 280
242 243 244 245 246 247 248 248 249 251 252 254 255 255 256 256 256 256 256 255 254 254 254 255 258 261 263 265 267 268 269 270 271 271 272 273 274 275 276 277 278 278 279 278 278 278 278 277 277 278 278 278 279 279 279 280 280 280 280 280 280 280 280 280 280 280 280 279 280 280 280 280 281 281 282 282 282 282 282 281 281 280 280 280 280
241 241 242 244 245 246 247 248 249 250 250 252 253 254 254 254 254 254 253 253 253 253 255 258 261 263 265 267 268 269 270 271 271 272 273 273 274 274 275 276 276 277 277 277 277 276 276 275 275 276 276 277 277 277 278 278 278 278 278 278 278 278 279 279 279 279 279 279 279 280 280 281 282 282 283 283 283 283 283 282 282 281 281 281 281
241 240 240 240 242 244 246 247 248 249 250 251 252 253 254 255 255 255 254 254 254 256 258 260 262 264 265 266 268 269 270 270 271 271 271 272 272 273 273 274 275 275 275 275 275 275 274 274 274 274 275 275 275 276 276 277 277 277 278 278 279 279 279 279 279 279 279 279 279 280 281 282 283 284 285 285 285 285 285 285 284 284 283 283 283
243 242 241 239 240 241 244 246 248 249 250 251 251 253 254 255 256 256 256 257 257 258 260 260 261 262 263 264 265 266 267 268 269 270 270 271 271 271 272 272 273 273 273 273 273 273 273 273 272 272 273 273 273 274 275 275 276 276 277 277 278 278 278 278 279 279 279 279 280 280 281 282 283 284 285 285 286 286 285 285 285 284 284 284 284
245 245 244 242 241 241 242 244 246 248 249 250 251 252 253 254 255 256 257 257 258 259 259 260 260 261 262 263 264 265 265 266 267 268 268 269 269 270 270 270 270 271 271 271 271 271 271 271 272 272 272 272 273 273 273 274 274 275 275 276 276 277 277 278 278 279 279 279 280 281 281 282 283 283 284 284 284 284 284 284 284 284 284 284 284
247 247 247 246 245 244 244 245 246 247 248 249 250 250 251 252 253 254 255 256 257 257 258 258 259 260 261 262 263 264 264 265 265 266 266 267 268 268 268 268 269 269 269 270 270 270 270 270 271 271 272 272 272 273 273 274 274 275 275 276 276 277 277 278 278 278 279 279 280 280 281 281 282 282 283 283 283 283 283 283 283 283 283 283 282
249 249 249 249 248 247 246 246 246 247 248 249 249 250 251 251 252 253 253 254 255 256 256 257 258 259 260 261 262 262 263 264 264 265 265 266 266 267 267 267 268 269 269 269 270 270 270 271 271 271 272 272 273 273 274 274 275 275 276 276 277 277 277 278 278 279 279 280 280 281 281 282 282 282 283 283 283 283 282 282 282 282 282 281 281
251 251 251 251 251 250 249 248 247 248 248 249 249 250 251 252 253 253 254 255 255 256 257 258 258 259 260 261 261 262 263 264 265 265 266 266 266 267 267 268 268 269 270 270 270 271 271 271 272 272 272 273 273 274 274 275 275 276 277 278 278 279 279 280 280 280 281 281 282 282 282 283 283 283 283 283 283 283 283 282 282 282 281 281 281
253 253 253 253 253 253 253 252 251 250 250 250 251 251 252 253 254 255 256 257 258 258 259 260 260 261 262 262 263 263 264 265 266 267 267 267 268 268 269 269 270 270 271 271 272 272 272 273 273 274 274 275 275 276 276 277 278 279 279 280 280 281 281 281 282 282 282 283 283 283 284 284 284 284 284 284 284 284 284 284 283 283 282 281 281
255 255 255 256 256 256 256 256 256 255 255 254 254 254 255 255 256 258 259 260 260 261 262 262 263 264 265 265 266 267 267 268 268 269 270 270 270 271 271 272 273 273 273 274 274 274 275 275 276 276 277 277 278 278 279 279 280 281 281 282 282 283 283 283 283 283 284 284 285 285 286 286 286 286 286 286 286 285 285 285 284 284 283 282 282
255 256 257 258 258 259 259 260 260 260 260 259 259 259 259 259 259 260 261 262 264 265 265 266 266 267 268 269 270 271 271 271 272 272 273 273 273 274 275 275 276 276 277 277 277 277 277 277 278 278 279 279 280 280 281 282 283 283 284 284 285 285 285 285 286 286 286 287 287 287 288 288 288 287 287 287 286 286 285 285 284 283 283 282 282
255 257 258 259 260 261 261 262 263 263 264 264 264 264 264 264 264 264 264 264 265 266 267 268 269 270 270 271 272 273 274 275 275 276 276 277 277 277 278 278 279 279 279 280 280 280 280 280 280 281 281 282 282 283 284 285 286 286 287 287 287 288 288 288 288 289 289 289 289 289 289 288 288 288 287 287 286 286 285 285 284 284 283 283 282
256 257 258 260 261 262 262 263 264 265 266 266 267 267 267 267 267 267 267 267 268 268 269 270 270 271 272 272 273 274 275 276 276 277 278 279 279 279 280 280 280 280 281 281 281 281 282 282 282 283 284 284 285 286 286 287 288 288 289 289 289 289 290 290 290 290 290 289 289 289 289 289 288 288 288 288 287 287 286 286 286 285 285 284 283
256 257 259 260 261 262 263 264 265 266 267 268 268 269 269 270 270 270 271 271 271 271 272 272 273 274 274 275 275 276 277 277 278 278 279 279 280 280 281 281 282 282 283 283 283 284 284 284 285 285 286 287 287 288 288 289 289 290 290 290 290 290 290 290 290 290 291 291 290 290 290 290 290 290 290 289 289 289 288 287 287 286 286 285 285
Height
11004 11004 11004 11004 11004 11004 11004 11005 11005 11005 11006 11006 11007 11008 11008 11009 11009 11010 11010 11011 11012 11012 11013 11014 11015 11015 11016 11016 11017 11017 11017 11017 11017 11018 11018 11018 11019 11019 11019 11019 11019 11019 11019 11019 11020 11020 11020 11020 11020 11020 11019 11018 11018 11017 11016 11016 11015 11014 11014 11013 11013 11013 11012 11011 11010 11010 11010 11010 11009 11009 11008 11008 11007 11006 11005 11004 11004 11003 11003 11002 11001 11001 10999 10998 10997
11004 11004 11004 11004 11005 11005 11005 11005 11005 11006 11006 11007 11007 11008 11009 11009 11010 11010 11011 11012 11012 11013 11014 11015 11015 11016 11017 11017 11018 11018 11018 11018 11018 11018 11019 11019 11019 11019 11019 11019 11019 11019 11019 11020 11020 11020 11020 11021 11021 11020 11020 11019 11018 11017 11016 11016 11015 11015 11015 11014 11013 11013 11013 11012 11011 11011 11010 11010 11010 11010 11009 11009 11008 11007 11006 11006 11005 11005 11004 11004 11003 11002 11001 11000 10999
11004 11005 11005 11005 11005 11005 11005 11005 11005 11005 11006 11006 11007 11008 11009 11009 11010 11011 11011 11012 11013 11014 11015 11015 11016 11017 11018 11018 11019 11019 11019 11019 11019 11019 11019 11019 11019 11019 11019 11019 11019 11020 11020 11020 11020 11020 11020 11020 11020 11020 11019 11019 11018 11017 11016 11015 11015 11015 11015 11014 11014 11013 11013 11013 11012 11011 11011 11011 11011 11011 11010 11009 11009 11008 11008 11007 11006 11006 11005 11005 11004 11003 11002 11001 11000
11003 11004 11004 11004 11005 11005 11005 11006 11006 11006 11006 11006 11007 11008 11008 11009 11010 11011 11012 11013 11014 11015 11016 11016 11017 11018 11019 11019 11020 11020 11020 11019 11019 11020 11020 11019 11019 11019 11019 11019 11019 11019 11019 11019 11019 11020 11020 11019 11019 11019 11019 11018 11017 11017 11016 11015 11015 11014 11014 11014 11014 11013 11012 11012 11012 11011 11011 11010 11011 11011 11010 11009 11009 11009 11008 11008 11007 11006 11006 11005 11004 11004 11003 11002 11001
11002 11003 11003 11004 11004 11004 11005 11006 11006 11006 11006 11007 11007 11008 11009 11010 11011 11011 11012 11013 11014 11015 11016 11017 11018 11019 11020 11020 11020 11020 11020 11020 11020 11020 11020 11020 11020 11019 11019 11019 11019 11019 11019 11019 11019 11019 11019 11018 11018 11018 11018 11017 11017 11017 11016 11015 11014 11013 11013 11013 11013 11012 11012 11012 11011 11010 11010 11010 11010 11010 11009 11008 11008 11008 11007 11007 11007 11006 11005 11005 11004 11003 11003 11002 11002
11000 11001 11002 11002 11003 11003 11004 11005 11006 11006 11007 11007 11008 11008 11009 11010 11011 11011 11012 11013 11014 11015 11016 11017 11018 11019 11020 11020 11021 11021 11021 11021 11020 11020 11020 11020 11019 11019 11019 11019 11019 11019 11019 11018 11018 11018 11017 11017 11017 11017 11017 11016 11016 11015 11015 11014 11013 11013 11013 11012 11012 11012 11012 11011 11011 11010 11010 11009 11009 11009 11008 11008 11007 11006 11006 11006 11006 11005 11004 11004 11003 11003 11002 11001 11001
10998 10999 11000 11000 11001 11002 11002 11003 11004 11005 11006 11007 11008 11009 11009 11010 11011 11011 11012 11012 11013 11014 11015 11016 11017 11018 11020 11021 11021 11021 11021 11020 11019 11019 11019 11018 11018 11018 11018 11018 11018 11018 11018 11017 11017 11017 11016 11016 11016 11016 11015 11015 11015 11014 11014 11014 11013 11013 11013 11012 11012 11011 11011 11011 11010 11010 11009 11009 11008 11008 11007 11007 11006 11006 11005 11005 11005 11004 11004 11003 11003 11002 11001 11000 11000
10995 10996 10997 10998 10999 11000 11001 11001 11002 11003 11005 11006 11008 11008 11009 11010 11010 11011 11012 11013 11013 11014 11015 11016 11017 11018 11020 11021 11020 11020 11019 11018 11017 11017 11017 11017 11017 11017 11017 11017 11017 11016 11016 11016 11016 11015 11015 11015 11015 11014 11014 11014 11014 11014 11014 11014 11013 11013 11012 11011 11011 11010 11010 11010 11009 11009 11009 11008 11008 11007 11007 11006 11006 11005 11005 11004 11004 11003 11003 11002 11002 11001 11000 10999 10998
10992 10993 10995 10996 10997 10998 10998 10999 11000 11001 11003 11005 11006 11007 11008 11009 11010 11011 11012 11012 11013 11014 11015 11015 11015 11016 11016 11015 11014 11015 11016 11017 11016 11016 11016 11016 11016 11016 11016 11016 11016 11015 11015 11015 11014 11014 11014 11013 11013 11012 11012 11013 11013 11013 11013 11013 11013 11012 11011 11010 11010 11009 11009 11008 11008 11007 11007 11007 11006 11006 11005 11004 11004 11004 11003 11003 11002 11002 11002 11001 11001 11000 11000 10999 10997
10989 10991 10992 10993 10995 10995 10996 10997 10997 10999 11000 11002 11003 11004 11006 11006 11008 11009 11010 11011 11012 11012 11013 11013 11013 11013 11013 11011 11011 11012 11014 11015 11015 11015 11015 11015 11015 11015 11015 11015 11014 11014 11013 11013 11013 11013 11013 11012 11011 11011 11011 11011 11012 11012 11012 11011 11011 11010 11010 11009 11008 11008 11007 11006 11006 11005 11005 11005 11005 11004 11004 11003 11003 11002 11001 11001 11000 11000 11000 10999 10999 10999 10999 10998 10996
10986 10987 10989 10991 10992 10992 10993 10993 10994 10995 10997 10999 11000 11001 11002 11003 11005 11006 11007 11008 11009 11009 11009 11011 11011 11010 11011 11011 11011 11011 11012 11012 11012 11012 11012 11013 11013 11013 11013 11013 11012 11012 11011 11011 11011 11011 11011 11010 11010 11009 11010 11010 11010 11010 11010 11009 11009 11008 11008 11007 11007 11006 11005 11004 11004 11003 11003 11003 11003 11003 11002 11001 11001 11000 11000 10999 10999 10998 10998 10998 10997 10997 10997 10996 10995
10981 10984 10986 10987 10988 10989 10989 10990 10990 10991 10993 10994 10996 10997 10998 10999 11001 11002 11003 11005 11005 11005 11006 11008 11008 11007 11008 11008 11009 11009 11010 11010 11009 11009 11009 11009 11009 11010 11010 11009 11009 11008 11008 11008 11008 11009 11009 11008 11007 11007 11008 11008 11008 11008 11007 11007 11006 11006 11005 11005 11004 11004 11003 11002 11002 11001 11001 11001 11001 11001 11000 10999 10998 10998 10998 10997 10997 10997 10996 10996 10995 10994 10993 10992 10992
10977 10981 10984 10984 10983 10983 10983 10982 10983 10986 10988 10989 10991 10993 10994 10995 10997 10998 11000 11001 11001 11001 11003 11005 11005 11004 11005 11005 11006 11006 11007 11007 11007 11007 11006 11007 11007 11007 11007 11007 11007 11006 11005 11005 11006 11006 11006 11005 11004 11004 11005 11005 11005 11005 11005 11004 11004 11003 11003 11003 11002 11001 11001 11000 10999 10999 10999 10998 10998 10998 10997 10996 10995 10996 10996 10995 10994 10994 10993 10992 10991 10990 10989 10988 10988
10975 10978 10980 10980 10978 10976 10974 10973 10976 10980 10983 10985 10987 10989 10990 10991 10993 10994 10995 10997 10997 10997 10999 11000 11001 11001 11001 11002 11003 11003 11003 11004 11004 11004 11004 11004 11004 11004 11004 11004 11004 11003 11002 11002 11003 11003 11003 11002 11001 11001 11001 11001 11001 11001 11001 11001 11001 11000 11000 10999 10999 10999 10998 10997 10996 10996 10995 10995 10995 10995 10995 10994 10993 10992 10993 10992 10991 10990 10989 10988 10987 10986 10985 10985 10984
10972 10974 10975 10974 10972 10972 10973 10974 10975 10978 10980 10981 10983 10984 10986 10987 10989 10990 10992 10993 10993 10994 10995 10995 10996 10996 10997 10998 10999 11000 11000 11000 11001 11001 11001 11001 11000 11000 11000 11001 11001 11000 11000 10999 10999 10999 10999 10998 10998 10998 10998 10997 10997 10997 10998 10998 10998 10997 10996 10996 10995 10995 10994 10994 10993 10993 10992 10992 10991 10991 10991 10991 10990 10989 10989 10988 10987 10986 10984 10984 10983 10982 10981 10981 10980
10969 10971 10972 10969 10969 10971 10972 10974 10975 10975 10977 10979 10980 10981 10982 10984 10986 10988 10989 10990 10991 10991 10991 10990 10990 10992 10994 10995 10996 10996 10996 10996 10997 10997 10997 10997 10997 10997 10997 10997 10997 10997 10997 10996 10995 10995 10995 10994 10994 10994 10994 10993 10993 10994 10994 10994 10994 10993 10993 10992 10992 10991 10990 10990 10989 10989 10989 10989 10988 10987 10987 10987 10987 10986 10986 10985 10984 10983 10981 10980 10979 10978 10977 10976 10976
10965 10968 10969 10966 10966 10969 10970 10971 10972 10973 10974 10976 10977 10978 10979 10981 10983 10985 10986 10987 10987 10987 10987 10987 10987 10988 10989 10991 10992 10992 10992 10993 10993 10993 10993 10993 10993 10993 10993 10993 10993 10993 10993 10992 10991 10991 10990 10990 10990 10990 10990 10989 10989 10989 10990 10990 10990 10989 10988 10988 10987 10987 10986 10986 10985 10985 10984 10984 10984 10983 10982 10982 10982 10982 10981 10981 10980 10979 10977 10976 10975 10974 10973 10972 10971
10960 10963 10963 10961 10962 10965 10967 10967 10968 10968 10970 10971 10972 10974 10975 10977 10979 10980 10981 10982 10983 10984 10984 10986 10986 10985 10985 10986 10986 10987 10987 10988 10988 10988 10988 10987 10988 10988 10988 10988 10988 10988 10988 10988 10987 10987 10986 10986 10986 10986 10985 10985 10985 10985 10985 10985 10985 10984 10984 10983 10983 10983 10982 10981 10981 10980 10980 10980 10979 10979 10978 10977 10977 10976 10976 10976 10976 10975 10973 10972 10971 10969 10968 10967 10967
10956 10957 10957 10958 10959 10961 10962 10962 10962 10964 10966 10967 10967 10969 10971 10973 10974 10974 10976 10978 10979 10980 10981 10982 10983 10982 10981 10981 10981 10981 10982 10982 10982 10983 10982 10982 10983 10983 10983 10983 10983 10983 10983 10983 10982 10981 10981 10982 10982 10981 10980 10980 10980 10979 10979 10979 10979 10979 10979 10978 10978 10978 10977 10976 10976 10976 10975 10974 10974 10974 10973 10972 10971 10971 10971 10971 10970 10969 10969 10967 10966 10965 10963 10963 10962
10951 10951 10953 10953 10953 10954 10956 10957 10958 10959 10961 10962 10963 10965 10967 10968 10969 10970 10972 10974 10975 10975 10976 10976 10978 10978 10976 10976 10976 10976 10976 10977 10977 10977 10977 10977 10977 10978 10977 10977 10977 10977 10977 10977 10976 10976 10975 10976 10976 10976 10975 10975 10974 10974 10974 10974 10974 10973 10973 10972 10972 10972 10971 10970 10970 10970 10969 10969 10968 10968 10967 10966 10966 10965 10964 10964 10964 10963 10962 10961 10960 10959 10957 10956 10955
10944 10946 10947 10946 10947 10951 10952 10951 10952 10954 10956 10958 10959 10961 10962 10962 10963 10965 10967 10970 10971 10971 10971 10971 10973 10973 10972 10972 10971 10970 10971 10972 10971 10971 10971 10971 10972 10972 10971 10971 10971 10971 10971 10971 10971 10970 10969 10970 10970 10970 10970 10969 10969 10968 10968 10968 10967 10967 10966 10966 10966 10965 10964 10964 10964 10963 10963 10962 10961 10961 10961 10960 10959 10958 10957 10957 10957 10956 10955 10954 10953 10951 10950 10949 10948
10936 10938 10939 10939 10943 10947 10946 10945 10947 10950 10951 10952 10954 10955 10955 10955 10957 10960 10962 10964 10964 10965 10965 10966 10967 10967 10966 10966 10965 10965 10966 10966 10966 10965 10965 10965 10966 10966 10965 10965 10965 10965 10965 10965 10964 10964 10964 10964 10964 10964 10964 10963 10962 10962 10961 10961 10960 10960 10959 10959 10958 10958 10957 10957 10957 10957 10956 10955 10954 10953 10953 10953 10952 10950 10949 10949 10948 10948 10947 10946 10945 10944 10942 10941 10940
10930 10931 10931 10933 10937 10939 10938 10938 10941 10943 10943 10944 10947 10949 10949 10950 10952 10954 10956 10957 10957 10957 10959 10960 10961 10961 10960 10959 10959 10959 10960 10961 10960 10959 10959 10959 10960 10960 10959 10958 10959 10958 10958 10957 10957 10958 10958 10958 10958 10958 10957 10956 10955 10954 10954 10954 10953 10952 10951 10951 10950 10950 10949 10949 10949 10949 10948 10947 10946 10945 10945 10945 10944 10942 10941 10940 10939 10938 10937 10936 10936 10935 10933 10932 10931
10921 10922 10924 10926 10929 10930 10930 10931 10933 10933 10935 10938 10941 10943 10943 10945 10947 10948 10949 10951 10951 10951 10952 10953 10954 10954 10953 10952 10952 10952 10953 10954 10953 10952 10952 10953 10953 10952 10951 10951 10951 10951 10950 10949 10949 10950 10950 10950 10950 10950 10950 10949 10948 10947 10946 10946 10945 10944 10942 10941 10941 10942 10941 10941 10942 10941 10940 10938 10938 10937 10936 10936 10935 10934 10932 10931 10930 10930 10928 10927 10926 10925 10923 10922 10922
10911 10914 10917 10919 10920 10921 10922 10923 10923 10924 10927 10931 10934 10936 10937 10939 10940 10941 10943 10944 10945 10945 10946 10946 10947 10947 10946 10946 10946 10945 10945 10946 10945 10945 10945 10945 10945 10945 10944 10943 10943 10942 10942 10941 10941 10941 10942 10942 10942 10942 10941 10941 10940 10939 10939 10938 10937 10935 10933 10930 10932 10934 10935 10934 10933 10933 10931 10930 10929 10928 10927 10926 10925 10924 10923 10922 10921 10920 10919 10918 10917 10916 10914 10912 10911
10903 10906 10908 10910 10912 10913 10914 10915 10916 10917 10919 10923 10926 10928 10929 10931 10932 10933 10935 10936 10937 10938 10938 10939 10940 10940 10939 10939 10939 10939 10938 10937 10936 10936 10937 10937 10938 10938 10936 10935 10934 10934 10933 10932 10932 10933 10933 10933 10933 10932 10932 10932 10932 10932 10931 10930 10928 10926 10923 10920 10923 10926 10926 10924 10924 10924 10923 10922 10920 10919 10917 10916 10915 10914 10913 10912 10911 10910 10909 10908 10907 10906 10904 10902 10901
10895 10897 10900 10902 10904 10905 10906 10908 10909 10911 10912 10914 10916 10919 10920 10922 10923 10926 10927 10929 10929 10929 10929 10930 10931 10931 10931 10931 10931 10930 10930 10929 10928 10927 10927 10927 10928 10928 10928 10927 10926 10925 10925 10924 10924 10924 10924 10924 10924 10923 10923 10922 10922 10922 10922 10920 10918 10916 10912 10911 10914 10917 10915 10912 10913 10913 10913 10912 10910 10909 10907 10905 10904 10902 10902 10902 10900 10899 10898 10897 10896 10895 10893 10891 10890
10886 10888 10891 10893 10896 10898 10899 10901 10903 10904 10906 10907 10909 10911 10913 10914 10916 10918 10919 10920 10920 10921 10921 10921 10922 10922 10922 10922 10922 10921 10921 10920 10919 10918 10918 10917 10917 10917 10917 10918 10917 10917 10916 10916 10915 10915 10915 10914 10913 10912 10912 10911 10911 10911 10911 10910 10908 10905 10901 10899 10901 10905 10904 10902 10902 10903 10903 10901 10898 10896 10895 10894 10892 10891 10890 10889 10889 10888 10887 10886 10885 10884 10882 10879 10877
10877 10880 10882 10885 10888 10891 10893 10894 10896 10898 10899 10900 10902 10904 10905 10907 10908 10909 10910 10911 10912 10911 10912 10912 10912 10913 10913 10913 10913 10912 10912 10911 10911 10910 10909 10909 10908 10907 10907 10906 10906 10906 10906 10906 10906 10906 10905 10903 10901 10900 10900 10900 10900 10899 10899 10897 10896 10893 10890 10886 10886 10888 10891 10891 10892 10892 10891 10889 10886 10883 10882 10880 10880 10879 10877 10876 10876 10876 10875 10874 10873 10871 10870 10867 10865
10870 10873 10875 10877 10880 10883 10885 10887 10889 10891 10892 10893 10894 10896 10897 10899 10900 10901 10901 10902 10903 10903 10903 10903 10904 10904 10904 10904 10904 10903 10903 10903 10902 10901 10900 10899 10898 10898 10897 10897 10896 10896 10895 10896 10896 10897 10895 10892 10890 10890 10890 10890 10889 10887 10886 10885 10884 10882 10879 10875 10872 10873 10875 10878 10879 10878 10877 10874 10871 10871 10870 10869 10867 10866 10864 10863 10862 10861 10861 10861 10860 10857 10855 10853 10851
10863 10865 10867 10869 10871 10874 10877 10879 10881 10883 10884 10886 10887 10888 10889 10890 10891 10892 10893 10893 10894 10895 10896 10896 10896 10896 10896 10895 10895 10895 10894 10894 10894 10893 10892 10891 10889 10888 10887 10886 10886 10885 10885 10885 10886 10885 10884 10881 10879 10879 10879 10879 10877 10875 10873 10872 10871 10871 10869 10865 10861 10860 10861 10863 10864 10863 10861 10858 10856 10856 10858 10857 10854 10852 10851 10850 10848 10847 10846 10846 10845 10843 10840 10838 10836
10855 10857 10859 10861 10863 10866 10868 10870 10872 10875 10876 10877 10879 10880 10881 10882 10882 10883 10884 10885 10885 10886 10887 10888 10888 10888 10887 10886 10886 10886 10886 10886 10886 10886 10885 10883 10881 10880 10878 10877 10876 10875 10875 10875 10874 10873 10871 10870 10868 10868 10867 10867 10865 10863 10860 10858 10857 10856 10855 10853 10851 10849 10848 10848 10848 10847 10845 10843 10841 10840 10842 10842 10839 10837 10837 10836 10834 10833 10831 10830 10829 10827 10824 10821 10819
10848 10849 10851 10854 10856 10858 10860 10862 10864 10865 10867 10868 10870 10871 10872 10872 10873 10873 10874 10875 10876 10877 10878 10879 10879 10878 10878 10877 10876 10877 10877 10877 10877 10876 10875 10874 10873 10872 10870 10869 10868 10866 10865 10864 10863 10862 10860 10858 10857 10856 10855 10854 10853 10851 10848 10845 10843 10841 10840 10839 10838 10837 10836 10834 10833 10831 10830 10828 10827 10826 10826 10826 10824 10821 10820 10819 10818 10817 10815 10813 10812 10809 10806 10803 10801
10840 10841 10843 10845 10847 10849 10851 10853 10855 10856 10858 10859 10860 10861 10862 10862 10863 10863 10864 10865 10866 10868 10868 10868 10868 10868 10867 10866 10867 10868 10868 10868 10866 10865 10864 10863 10862 10861 10860 10859 10857 10856 10854 10852 10851 10850 10848 10846 10844 10843 10842 10841 10839 10838 10835 10832 10829 10827 10826 10826 10825 10824 10822 10821 10819 10816 10814 10813 10811 10810 10809 10809 10807 10805 10803 10801 10800 10799 10797 10795 10793 10790 10788 10785 10782
10830 10832 10834 10836 10838 10840 10841 10843 10845 10847 10848 10850 10851 10852 10853 10853 10854 10854 10854 10855 10857 10858 10858 10858 10857 10856 10855 10855 10856 10857 10857 10856 10855 10854 10853 10852 10851 10850 10849 10847 10846 10844 10842 10840 10839 10838 10836 10833 10830 10828 10827 10826 10825 10823 10821 10818 10815 10812 10812 10814 10813 10810 10809 10807 10805 10803 10800 10797 10794 10792 10791 10790 10789 10787 10785 10783 10782 10781 10780 10778 10777 10774 10771 10769 10766
10821 10823 10825 10826 10828 10830 10832 10834 10835 10837 10839 10841 10842 10843 10844 10845 10845 10845 10845 10846 10847 10848 10848 10848 10847 10845 10844 10844 10845 10845 10844 10843 10842 10842 10841 10839 10838 10837 10836 10834 10833 10832 10830 10828 10827 10825 10823 10819 10815 10812 10810 10810 10809 10807 10806 10803 10800 10797 10797 10799 10798 10794 10792 10792 10791 10789 10786 10783 10779 10776 10774 10773 10772 10771 10769 10767 10765 10763 10762 10762 10761 10759 10756 10753 10749
10811 10813 10815 10817 10819 10821 10823 10824 10826 10828 10831 10831 10832 10833 10834 10835 10836 10836 10836 10836 10838 10838 10838 10838 10837 10835 10833 10832 10831 10831 10831 10830 10830 10829 10828 10826 10824 10823 10821 10819 10817 10817 10817 10816 10814 10812 10808 10804 10799 10796 10793 10792 10791 10790 10787 10785 10783 10782 10782 10783 10781 10778 10777 10776 10776 10774 10771 10767 10764 10761 10759 10758 10757 10756 10755 10752 10750 10747 10745 10744 10742 10740 10736 10733 10730
10801 10804 10806 10808 10809 10812 10814 10816 10817 10820 10822 10822 10823 10825 10825 10825 10825 10826 10826 10826 10828 10829 10829 10828 10827 10825 10823 10820 10818 10818 10818 10818 10818 10817 10815 10814 10811 10809 10807 10804 10803 10801 10800 10799 10800 10799 10795 10790 10786 10782 10780 10777 10776 10774 10771 10769 10768 10767 10766 10766 10765 10763 10761 10761 10761 10759 10756 10752 10748 10744 10741 10739 10737 10736 10735 10734 10732 10729 10727 10724 10721 10718 10714 10711 10708
10793 10795 10798 10800 10801 10804 10806 10807 10809 10811 10813 10814 10815 10816 10816 10816 10816 10816 10815 10816 10818 10819 10820 10819 10817 10814 10811 10807 10806 10806 10806 10806 10805 10804 10803 10802 10799 10796 10793 10791 10789 10787 10784 10782 10782 10783 10781 10777 10773 10769 10766 10764 10762 10760 10757 10755 10753 10751 10749 10748 10747 10746 10744 10743 10742 10740 10738 10734 10729 10726 10723 10719 10716 10713 10711 10710 10709 10708 10705 10702 10698 10695 10691 10687 10685
10783 10786 10789 10791 10794 10796 10798 10799 10800 10802 10803 10804 10805 10806 10806 10806 10806 10806 10805 10806 10808 10809 10810 10809 10806 10802 10798 10796 10794 10794 10794 10793 10791 10790 10789 10787 10785 10783 10781 10778 10776 10773 10769 10766 10765 10765 10764 10762 10758 10755 10752 10750 10748 10745 10743 10740 10736 10733 10731 10731 10730 10728 10726 10724 10722 10720 10717 10714 10710 10706 10702 10698 10694 10690 10687 10685 10684 10683 10680 10677 10673 10669 10665 10662 10659
10774 10777 10780 10783 10786 10788 10789 10790 10791 10793 10794 10795 10795 10796 10795 10795 10795 10794 10794 10795 10797 10798 10799 10798 10794 10790 10787 10785 10783 10782 10781 10780 10778 10776 10774 10772 10770 10768 10766 10764 10761 10758 10755 10752 10750 10748 10746 10743 10741 10738 10736 10734 10733 10730 10727 10724 10720 10717 10714 10713 10712 10710 10707 10704 10702 10699 10696 10692 10688 10685 10680 10675 10671 10667 10664 10661 10659 10657 10654 10650 10646 10642 10639 10634 10631
10765 10768 10771 10774 10777 10779 10780 10782 10783 10784 10784 10785 10785 10785 10785 10785 10784 10783 10783 10784 10786 10787 10787 10784 10781 10778 10776 10774 10771 10770 10768 10767 10765 10763 10761 10758 10756 10754 10752 10749 10745 10741 10739 10737 10735 10733 10730 10727 10723 10720 10718 10717 10715 10713 10711 10707 10704 10701 10698 10695 10693 10690 10687 10684 10681 10678 10673 10669 10666 10662 10657 10652 10647 10643 10640 10638 10635 10632 10628 10624 10621 10617 10613 10608 10603
10756 10759 10762 10765 10767 10769 10771 10772 10773 10774 10774 10775 10775 10775 10775 10775 10774 10773 10772 10774 10775 10775 10773 10771 10769 10766 10763 10761 10760 10758 10755 10752 10751 10750 10748 10746 10743 10740 10738 10734 10729 10724 10722 10721 10719 10717 10714 10711 10707 10704 10701 10698 10696 10694 10691 10689 10686 10683 10679 10676 10673 10670 10667 10664 10660 10655 10651 10647 10644 10640 10635 10629 10625 10620 10616 10613 10611 10607 10603 10599 10596 10592 10588 10583 10577
10747 10750 10752 10755 10757 10759 10761 10762 10762 10763 10763 10764 10764 10764 10764 10764 10763 10761 10761 10762 10762 10761 10760 10759 10757 10754 10751 10749 10748 10746 10742 10739 10737 10736 10735 10733 10730 10726 10722 10718 10714 10710 10707 10704 10702 10700 10697 10694 10690 10686 10683 10681 10678 10675 10672 10670 10667 10663 10660 10657 10653 10650 10646 10642 10638 10633 10629 10625 10621 10616 10611 10606 10602 10596 10592 10588 10584 10580 10576 10572 10568 10565 10561 10555 10548
10737 10739 10741 10743 10746 10747 10749 10750 10751 10751 10752 10752 10753 10753 10753 10752 10750 10750 10750 10750 10749 10747 10746 10745 10743 10740 10737 10735 10734 10732 10730 10726 10723 10720 10719 10717 10714 10711 10707 10703 10700 10696 10691 10687 10683 10680 10678 10675 10672 10668 10665 10662 10660 10656 10653 10650 10647 10643 10640 10637 10632 10628 10624 10620 10615 10610 10605 10600 10595 10590 10585 10580 10575 10570 10564 10559 10554 10550 10544 10539 10535 10532 10527 10522 10516
10727 10729 10730 10732 10734 10735 10736 10737 10739 10740 10740 10740 10740 10741 10741 10739 10738 10737 10737 10736 10735 10733 10732 10731 10728 10725 10723 10720 10719 10717 10716 10713 10709 10705 10703 10700 10698 10696 10692 10688 10684 10680 10676 10671 10666 10662 10658 10655 10652 10649 10646 10642 10639 10636 10633 10630 10626 10623 10620 10615 10611 10606 10601 10596 10590 10584 10578 10573 10567 10562 10556 10550 10545 10539 10534 10528 10522 10517 10511 10506 10502 10498 10494 10490 10487
10717 10718 10720 10721 10722 10724 10724 10725 10726 10728 10728 10728 10728 10729 10729 10727 10725 10725 10724 10722 10720 10719 10718 10716 10713 10711 10708 10706 10703 10701 10700 10698 10695 10691 10687 10684 10682 10680 10677 10672 10667 10662 10658 10654 10649 10644 10639 10635 10632 10629 10625 10622 10618 10615 10612 10608 10604 10601 10597 10592 10587 10581 10575 10570 10564 10557 10550 10544 10539 10533 10527 10521 10515 10509 10504 10498 10493 10488 10483 10479 10475 10471 10467 10463 10461
10708 10709 10709 10710 10712 10713 10714 10713 10714 10715 10716 10715 10715 10716 10716 10715 10714 10713 10712 10710 10707 10705 10704 10701 10698 10696 10694 10692 10689 10685 10682 10680 10678 10675 10671 10668 10665 10663 10660 10656 10650 10644 10638 10634 10630 10625 10620 10615 10611 10607 10604 10600 10596 10592 10589 10585 10580 10576 10572 10567 10561 10555 10548 10542 10535 10529 10522 10516 10510 10505 10499 10494 10488 10483 10477 10473 10469 10464 10459 10455 10452 10449 10445 10442 10439
10699 10699 10700 10700 10701 10702 10703 10703 10703 10704 10704 10703 10703 10703 10703 10702 10701 10700 10700 10699 10697 10694 10691 10688 10684 10680 10679 10678 10675 10671 10666 10662 10659 10656 10652 10649 10646 10643 10640 10636 10631 10625 10619 10613 10609 10604 10600 10595 10591 10587 10583 10579 10574 10570 10566 10562 10557 10551 10545 10540 10533 10527 10521 10515 10508 10502 10495 10490 10485 10480 10475 10470 10465 10460 10456 10452 10448 10444 10439 10435 10432 10430 10427 10424 10421
10690 10690 10690 10690 10691 10692 10692 10692 10692 10693 10692 10691 10690 10690 10690 10688 10687 10687 10687 10687 10685 10682 10680 10677 10672 10668 10665 10664 10662 10659 10654 10649 10645 10641 10638 10633 10629 10625 10621 10617 10612 10607 10601 10596 10590 10586 10581 10577 10573 10569 10565 10560 10554 10549 10544 10539 10534 10527 10521 10515 10508 10502 10496 10490 10485 10480 10474 10469 10464 10459 10454 10450 10445 10441 10437 10433 10430 10426 10421 10418 10415 10413 10410 10407 10404
10681 10681 10681 10682 10682 10682 10682 10682 10682 10682 10681 10679 10678 10677 10677 10675 10673 10672 10673 10672 10671 10668 10667 10665 10660 10656 10653 10650 10647 10644 10640 10636 10631 10627 10623 10619 10614 10609 10605 10600 10596 10590 10585 10578 10572 10567 10562 10559 10555 10551 10547 10541 10536 10530 10523 10518 10512 10506 10500 10494 10488 10482 10476 10471 10467 10461 10456 10451 10446 10441 10437 10432 10428 10424 10420 10417 10413 10410 10405 10402 10400 10398 10395 10392 10389